When you browse on this site, cookies collect data to enhance your experience and personalize the content and advertising you see.
Visit our Privacy Policy to learn more. By continuing to use the site, you agree to this use of cookies and data.
  • In United Kingdom
  • List of Countries
  • For 7 days
  • Water Temperature
  • Satellite Maps
  • Weather Map
  • Weather Widgets
  • user-avatar
    Login

    Hourly Weather Abergavenny

    Today, 23 April, Tuesday

    Time Temperature Precipitation Wind Pressure Humidity
    00:00 +12°C° 0 mm 1 mps 734 mmHg 86%
    01:00 +12°C° 0 mm 1 mps 734 mmHg 86%
    02:00 +11°C° 0 mm 1 mps 734 mmHg 86%
    03:00 +10°C° 0 mm 2 mps 733 mmHg 85%
    04:00 +10°C° 0 mm 2 mps 733 mmHg 87%
    05:00 +10°C° 0 mm 2 mps 733 mmHg 88%
    06:00 +10°C° 0 mm 3 mps 732 mmHg 90%
    07:00 +12°C° 0 mm 3 mps 732 mmHg 85%
    08:00 +13°C° 0 mm 3 mps 732 mmHg 80%
    09:00 +16°C° 0 mm 3 mps 732 mmHg 74%
    10:00 +18°C° 0 mm 3 mps 732 mmHg 72%
    11:00 +19°C° 0 mm 3 mps 732 mmHg 69%
    12:00 +21°C° 0 mm 3 mps 732 mmHg 67%
    13:00 +21°C° 0.9 mm 3 mps 732 mmHg 69%
    14:00 +21°C° 0.9 mm 4 mps 731 mmHg 70%
    15:00 +21°C° 0.9 mm 4 mps 731 mmHg 72%
    16:00 +20°C° 0.7 mm 3 mps 731 mmHg 77%
    17:00 +19°C° 0.7 mm 3 mps 730 mmHg 82%
    18:00 +18°C° 0.7 mm 3 mps 730 mmHg 86%
    19:00 +17°C° 0.5 mm 3 mps 730 mmHg 88%
    20:00 +14°C° 0.5 mm 3 mps 730 mmHg 90%
    21:00 +13°C° 0.5 mm 3 mps 730 mmHg 92%
    22:00 +13°C° 0 mm 2 mps 730 mmHg 93%
    23:00 +12°C° 0 mm 2 mps 730 mmHg 94%

    Tomorrow, 24 April, Wednesday

    Time Temperature Precipitation Wind Pressure Humidity
    00:00 +10°C° 0 mm 2 mps 729 mmHg 95%
    01:00 +9°C° 0 mm 2 mps 729 mmHg 96%
    02:00 +9°C° 0 mm 2 mps 729 mmHg 96%
    03:00 +9°C° 0 mm 2 mps 728 mmHg 96%
    04:00 +9°C° 0 mm 2 mps 728 mmHg 96%
    05:00 +9°C° 0 mm 2 mps 727 mmHg 96%
    06:00 +9°C° 0 mm 2 mps 727 mmHg 96%
    07:00 +10°C° 0.2 mm 3 mps 727 mmHg 95%
    08:00 +11°C° 0.2 mm 3 mps 727 mmHg 94%
    09:00 +12°C° 0.2 mm 4 mps 726 mmHg 94%
    10:00 +11°C° 1.4 mm 4 mps 726 mmHg 94%
    11:00 +10°C° 1.4 mm 5 mps 726 mmHg 93%
    12:00 +9°C° 1.4 mm 6 mps 727 mmHg 93%
    13:00 +10°C° 0.1 mm 6 mps 727 mmHg 90%
    14:00 +10°C° 0.1 mm 6 mps 728 mmHg 87%
    15:00 +10°C° 0.1 mm 6 mps 728 mmHg 84%
    16:00 +10°C° 0.2 mm 6 mps 729 mmHg 84%
    17:00 +10°C° 0.2 mm 5 mps 729 mmHg 85%
    18:00 +9°C° 0.2 mm 5 mps 729 mmHg 86%
    19:00 +8°C° 0 mm 4 mps 730 mmHg 88%
    20:00 +7°C° 0 mm 4 mps 730 mmHg 90%
    21:00 +5°C° 0 mm 3 mps 730 mmHg 91%
    22:00 +5°C° 0 mm 3 mps 730 mmHg 93%
    23:00 +5°C° 0 mm 3 mps 730 mmHg 94%

    Day after tomorrow, 25 April, Thursday

    Time Temperature Precipitation Wind Pressure Humidity
    00:00 +5°C° 0 mm 3 mps 729 mmHg 96%
    01:00 +5°C° 0.5 mm 4 mps 729 mmHg 96%
    02:00 +6°C° 0.5 mm 5 mps 729 mmHg 96%
    03:00 +7°C° 0.5 mm 6 mps 728 mmHg 96%
    04:00 +7°C° 0.2 mm 6 mps 728 mmHg 95%
    05:00 +7°C° 0.2 mm 5 mps 729 mmHg 93%
    06:00 +7°C° 0.2 mm 5 mps 729 mmHg 92%
    07:00 +7°C° 0 mm 6 mps 730 mmHg 88%
    08:00 +8°C° 0 mm 6 mps 730 mmHg 83%
    09:00 +9°C° 0 mm 6 mps 731 mmHg 79%
    10:00 +9°C° 0.4 mm 7 mps 732 mmHg 77%
    11:00 +10°C° 0.4 mm 7 mps 732 mmHg 75%
    12:00 +10°C° 0.4 mm 7 mps 733 mmHg 73%
    13:00 +10°C° 0.4 mm 7 mps 733 mmHg 73%
    14:00 +10°C° 0.4 mm 6 mps 734 mmHg 72%
    15:00 +10°C° 0.4 mm 6 mps 734 mmHg 72%
    16:00 +10°C° 0.1 mm 5 mps 734 mmHg 75%
    17:00 +9°C° 0.1 mm 5 mps 734 mmHg 77%
    18:00 +10°C° 0.1 mm 4 mps 734 mmHg 80%
    19:00 +8°C° 0 mm 3 mps 735 mmHg 84%
    20:00 +7°C° 0 mm 3 mps 735 mmHg 88%
    21:00 +5°C° 0 mm 2 mps 736 mmHg 92%
    22:00 +5°C° 0 mm 2 mps 736 mmHg 93%
    23:00 +5°C° 0 mm 2 mps 736 mmHg 94%

    26 April, Friday

    Time Temperature Precipitation Wind Pressure Humidity
    00:00 +4°C° 0 mm 2 mps 736 mmHg 95%
    01:00 +5°C° 0 mm 1 mps 736 mmHg 95%
    02:00 +5°C° 0 mm 1 mps 736 mmHg 95%
    03:00 +4°C° 0 mm 1 mps 736 mmHg 96%
    04:00 +5°C° 0 mm 1 mps 736 mmHg 96%
    05:00 +5°C° 0 mm 1 mps 736 mmHg 96%
    06:00 +5°C° 0 mm 1 mps 736 mmHg 96%
    07:00 +7°C° 0 mm 1 mps 737 mmHg 89%
    08:00 +9°C° 0 mm 1 mps 737 mmHg 83%
    09:00 +11°C° 0 mm 1 mps 738 mmHg 76%
    10:00 +12°C° 0.1 mm 2 mps 738 mmHg 72%
    11:00 +12°C° 0.1 mm 3 mps 739 mmHg 67%
    12:00 +13°C° 0.1 mm 4 mps 739 mmHg 63%
    13:00 +13°C° 0.2 mm 5 mps 739 mmHg 65%
    14:00 +13°C° 0.2 mm 6 mps 739 mmHg 68%
    15:00 +11°C° 0.2 mm 7 mps 740 mmHg 70%
    16:00 +10°C° 0.1 mm 7 mps 740 mmHg 75%
    17:00 +9°C° 0.1 mm 7 mps 741 mmHg 80%
    18:00 +8°C° 0.1 mm 6 mps 741 mmHg 84%
    19:00 +7°C° 0 mm 6 mps 742 mmHg 86%
    20:00 +6°C° 0 mm 5 mps 742 mmHg 88%
    21:00 +5°C° 0 mm 4 mps 743 mmHg 89%
    22:00 +5°C° 0.2 mm 4 mps 743 mmHg 90%
    23:00 +5°C° 0.2 mm 3 mps 742 mmHg 91%

    27 April, Saturday

    Time Temperature Precipitation Wind Pressure Humidity
    00:00 +5°C° 0.2 mm 3 mps 742 mmHg 91%
    01:00 +5°C° 0.6 mm 3 mps 741 mmHg 93%
    02:00 +7°C° 0.6 mm 3 mps 741 mmHg 94%
    03:00 +8°C° 0.6 mm 3 mps 740 mmHg 95%
    04:00 +6°C° 0 mm 5 mps 741 mmHg 94%
    05:00 +4°C° 0 mm 6 mps 742 mmHg 93%
    06:00 +4°C° 0 mm 7 mps 742 mmHg 92%
    07:00 +4°C° 0 mm 7 mps 744 mmHg 88%
    08:00 +5°C° 0 mm 7 mps 745 mmHg 85%
    09:00 +6°C° 0 mm 7 mps 746 mmHg 81%
    10:00 +8°C° 0 mm 7 mps 747 mmHg 75%
    11:00 +9°C° 0 mm 7 mps 748 mmHg 68%
    12:00 +10°C° 0 mm 8 mps 749 mmHg 62%
    13:00 +10°C° 0 mm 7 mps 750 mmHg 61%
    14:00 +10°C° 0 mm 7 mps 750 mmHg 59%
    15:00 +10°C° 0 mm 7 mps 751 mmHg 58%
    16:00 +9°C° 0 mm 6 mps 751 mmHg 62%
    17:00 +8°C° 0 mm 5 mps 751 mmHg 66%
    18:00 +8°C° 0 mm 4 mps 752 mmHg 70%
    19:00 +8°C° 0 mm 3 mps 752 mmHg 76%
    20:00 +5°C° 0 mm 3 mps 753 mmHg 81%
    21:00 +5°C° 0 mm 2 mps 753 mmHg 86%
    22:00 +5°C° 0 mm 3 mps 753 mmHg 85%
    23:00 +5°C° 0 mm 3 mps 753 mmHg 83%

    28 April, Sunday

    Time Temperature Precipitation Wind Pressure Humidity
    00:00 +7°C° 0 mm 3 mps 753 mmHg 82%
    01:00 +6°C° 0 mm 4 mps 753 mmHg 85%
    02:00 +6°C° 0 mm 4 mps 752 mmHg 88%
    03:00 +6°C° 0 mm 4 mps 752 mmHg 90%
    04:00 +7°C° 0 mm 5 mps 752 mmHg 91%
    05:00 +7°C° 0 mm 5 mps 751 mmHg 91%
    06:00 +7°C° 0 mm 5 mps 751 mmHg 91%
    07:00 +8°C° 0 mm 5 mps 751 mmHg 90%
    08:00 +9°C° 0 mm 5 mps 751 mmHg 90%
    09:00 +10°C° 0 mm 6 mps 750 mmHg 89%
    10:00 +10°C° 0.2 mm 5 mps 750 mmHg 90%
    11:00 +10°C° 0.2 mm 5 mps 750 mmHg 91%
    12:00 +10°C° 0.2 mm 5 mps 750 mmHg 93%
    13:00 +10°C° 0.2 mm 5 mps 749 mmHg 93%
    14:00 +10°C° 0.2 mm 5 mps 749 mmHg 93%
    15:00 +10°C° 0.2 mm 5 mps 748 mmHg 93%
    16:00 +10°C° 0.4 mm 5 mps 748 mmHg 94%
    17:00 +10°C° 0.4 mm 5 mps 747 mmHg 94%
    18:00 +10°C° 0.4 mm 5 mps 746 mmHg 95%
    19:00 +9°C° 0.1 mm 6 mps 746 mmHg 95%
    20:00 +9°C° 0.1 mm 6 mps 745 mmHg 95%
    21:00 +9°C° 0.1 mm 7 mps 745 mmHg 95%
    22:00 +9°C° 0.9 mm 6 mps 744 mmHg 95%
    23:00 +8°C° 0.9 mm 6 mps 744 mmHg 96%
    Show more